Spokane Fairchild, WA
on Monday, January 28, 2013

Monday
Previous Day Next Day
Daily Summary
 ActualAverage (KGEG)Record (KGEG)
Temperature
Mean Temperature °F 31°F  
Max Temperature 32°F 36°F 58°F (1931)
Min Temperature 26°F 26°F -17°F (1882)
Degree Days
Heating Degree Days 36 34  
Month to date heating degree days 997  
Since 1 July heating degree days 3831  
Cooling Degree Days 0 0  
Month to date cooling degree days 0  
Year to date cooling degree days 0  
Moisture
Dew Point 28°F   
Average Humidity 100    
Maximum Humidity 100    
Minimum Humidity 99    
Precipitation
Precipitation 0.02 in 0.05 in 0.44 in (1888)
Month to date precipitation 1.65  
Year to date precipitation 1.65  
Snow
Snow 0.00 in 0.30 in 2.80 in (1929)
Month to date snowfall 10.6  
Since 1 July snowfall 32.7  
Snow Depth 3.00 in   
Wind
Wind Speed 8 mph   
Max Wind Speed 16 mph   
Max Gust Speed mph   
Visibility 8 miles   
Events Rain , Snow   

Key: T is trace of precipitation, MM is missing value
Source: NWS Daily Summary
Time(PST)TemperatureDew PointHumidity Pressure Visibility Wind DirectionWind SpeedGust SpeedPrecipitationEvents Conditions
12:03 AM 32.0°F 32.0°F 100% 29.88 in 4.0 miles South 5.8 mph - N/A Snow Light Snow
12:38 AM 30.2°F 30.2°F 100% 29.88 in 6.0 miles South 8.1 mph - N/A Snow Light Snow
12:43 AM 30.2°F 30.2°F 100% 29.88 in 6.0 miles South 6.9 mph - N/A Snow Light Snow
12:48 AM 30.2°F 30.2°F 100% 29.88 in 6.0 miles South 8.1 mph - N/A Snow Light Snow
12:58 AM 30.2°F 30.2°F 100% 29.96 in 6.0 miles South 8.1 mph - 0.00 in Snow Light Snow
1:03 AM 30.2°F 30.2°F 100% 29.88 in 6.0 miles South 6.9 mph - N/A Snow Light Snow
1:08 AM 30.2°F 30.2°F 100% 29.88 in 7.0 miles South 6.9 mph - N/A Snow Light Snow
1:13 AM 30.2°F 30.2°F 100% 29.87 in 7.0 miles South 8.1 mph - N/A Snow Light Snow
1:33 AM 30.2°F 30.2°F 100% 29.87 in 6.0 miles South 6.9 mph - N/A Snow Light Snow
1:58 AM 29.8°F 29.8°F 100% 29.95 in 7.0 miles SSW 6.9 mph - 0.00 in Snow Light Snow
2:39 AM 30.2°F 30.2°F 100% 29.87 in 9.0 miles SSW 8.1 mph - N/A   Overcast
2:44 AM 30.2°F 30.2°F 100% 29.87 in 10.0 miles SSW 9.2 mph - N/A   Overcast
2:48 AM 30.2°F 30.2°F 100% 29.87 in 10.0 miles SSW 9.2 mph - N/A Snow Light Snow
2:58 AM 29.7°F 29.7°F 100% 29.95 in 10.0 miles SSW 10.4 mph - 0.00 in Snow Light Snow
2:59 AM 30.2°F 30.2°F 100% 29.87 in 10.0 miles SSW 9.2 mph - N/A   Overcast
3:38 AM 28.4°F 28.4°F 100% 29.87 in 10.0 miles SSW 9.2 mph - N/A   Overcast
3:48 AM 28.4°F 28.4°F 100% 29.87 in 10.0 miles SSW 10.4 mph - N/A   Overcast
3:58 AM 29.1°F 29.1°F 100% 29.96 in 10.0 miles SSW 8.1 mph - 0.00 in   Overcast
4:12 AM 28.4°F 28.4°F 100% 29.87 in 10.0 miles SSW 11.5 mph - N/A   Overcast
4:22 AM 28.4°F 28.4°F 100% 29.87 in 10.0 miles SSW 10.4 mph - N/A   Overcast
4:27 AM 28.4°F 28.4°F 100% 29.86 in 10.0 miles SSW 13.8 mph - N/A   Overcast
4:46 AM 28.4°F 28.4°F 100% 29.86 in 10.0 miles SW 12.7 mph - N/A   Overcast
4:58 AM 29.1°F 29.1°F 100% 29.94 in 10.0 miles SSW 10.4 mph - 0.00 in   Overcast
5:28 AM 28.4°F 28.4°F 100% 29.85 in 10.0 miles SSW 8.1 mph - N/A   Overcast
5:48 AM 28.4°F 28.4°F 100% 29.86 in 10.0 miles SSW 9.2 mph - N/A   Overcast
5:49 AM 28.4°F 28.4°F 100% 29.86 in 10.0 miles SSW 10.4 mph - N/A   Overcast
5:53 AM 28.4°F 28.4°F 100% 29.86 in 10.0 miles SSW 8.1 mph - N/A   Overcast
5:58 AM 28.9°F 28.9°F 100% 29.94 in 10.0 miles SSW 6.9 mph - 0.00 in   Overcast
6:03 AM 28.4°F 28.4°F 100% 29.86 in 10.0 miles SSW 12.7 mph - N/A   Overcast
6:18 AM 28.4°F 28.4°F 100% 29.86 in 10.0 miles SSW 11.5 mph - N/A   Overcast
6:58 AM 28.6°F 28.6°F 100% 29.96 in 10.0 miles SW 8.1 mph - 0.00 in   Overcast
7:48 AM 28.4°F 28.4°F 100% 29.87 in 6.0 miles SW 9.2 mph - N/A   Overcast
7:53 AM 28.4°F 28.4°F 100% 29.87 in 2.0 miles SW 9.2 mph - N/A Rain Light Freezing Rain
7:58 AM 28.4°F 28.4°F 100% 29.96 in 1.5 miles SW 9.2 mph - 0.00 in Rain Light Freezing Rain
8:27 AM 28.4°F 28.4°F 100% 29.87 in 2.5 miles SSW 8.1 mph - N/A Snow Light Snow
8:37 AM 28.4°F 28.4°F 100% 29.87 in 3.0 miles SSW 6.9 mph - N/A Snow Light Snow
8:58 AM 28.6°F 28.6°F 100% 29.96 in 4.0 miles SW 6.9 mph - 0.00 in Snow Light Snow
9:03 AM 28.4°F 28.4°F 100% 29.86 in 4.0 miles SW 6.9 mph - N/A Snow Light Snow
9:21 AM 28.4°F 28.4°F 100% 29.86 in 10.0 miles SSW 5.8 mph - N/A   Overcast
9:31 AM 28.4°F 28.4°F 100% 29.87 in 10.0 miles SW 8.1 mph - N/A   Overcast
9:56 AM 28.4°F 28.4°F 100% 29.86 in 10.0 miles SSW 8.1 mph - N/A   Overcast
9:59 AM 29.1°F 29.1°F 100% 29.94 in 10.0 miles SW 6.9 mph - 0.00 in   Overcast
10:55 AM 27.9°F 27.9°F 100% 29.94 in 10.0 miles SSW 11.5 mph - N/A   Overcast
11:07 AM 28.4°F 28.4°F 100% 29.94 in 2.5 miles SW 9.2 mph - N/A   Overcast
11:10 AM 28.4°F 28.4°F 100% 29.94 in 1.5 miles WSW 15.0 mph - N/A   Overcast
11:24 AM 26.6°F 26.6°F 100% 29.93 in 1.0 miles SW 11.5 mph - N/A   Mist
11:36 AM 26.6°F 26.6°F 100% 29.93 in 1.5 miles WSW 16.1 mph - N/A   Overcast
11:43 AM 26.6°F 26.6°F 100% 29.93 in 2.0 miles WSW 15.0 mph - N/A   Overcast
11:55 AM 26.4°F 26.4°F 100% 29.94 in 4.0 miles WSW 15.0 mph - 0.00 in   Overcast
12:06 PM 26.6°F 26.6°F 100% 29.93 in 6.0 miles WSW 13.8 mph - N/A   Overcast
12:45 PM 26.6°F 26.6°F 100% 29.94 in 7.0 miles WSW 12.7 mph - N/A   Overcast
12:55 PM 26.4°F 26.4°F 100% 29.93 in 7.0 miles WSW 10.4 mph - N/A   Overcast
1:27 PM 26.6°F 26.6°F 100% 29.93 in 1.5 miles WSW 9.2 mph - N/A   Overcast
1:31 PM 26.6°F 26.6°F 100% 29.93 in 4.0 miles WSW 10.4 mph - N/A   Overcast
1:58 PM 26.4°F 26.4°F 100% 29.94 in 4.0 miles WSW 10.4 mph - 0.02 in   Overcast
2:18 PM 26.6°F 26.6°F 100% 29.85 in 10.0 miles WSW 10.4 mph - N/A   Overcast
2:23 PM 26.6°F 26.6°F 100% 29.85 in 8.0 miles WSW 9.2 mph - N/A   Overcast
2:46 PM 26.6°F 26.6°F 100% 29.86 in 10.0 miles WSW 6.9 mph - N/A   Overcast
2:58 PM 26.4°F 26.4°F 100% 29.94 in 10.0 miles WSW 8.1 mph - 0.00 in   Overcast
2:59 PM 26.6°F 26.6°F 100% 29.85 in 10.0 miles SW 8.1 mph - N/A   Overcast
3:00 PM 26.6°F 26.6°F 100% 29.85 in 10.0 miles SW 8.1 mph - N/A   Overcast
3:01 PM 26.6°F 26.6°F 100% 29.85 in 10.0 miles SW 8.1 mph - N/A   Overcast
3:06 PM 26.6°F 26.6°F 100% 29.85 in 10.0 miles SW 5.8 mph - N/A   Overcast
3:11 PM 26.6°F 26.6°F 100% 29.85 in 10.0 miles SW 6.9 mph - N/A   Overcast
3:21 PM 26.6°F 26.6°F 100% 29.85 in 10.0 miles SSW 5.8 mph - N/A   Overcast
3:58 PM 26.6°F 26.4°F 99% 29.92 in 10.0 miles SSW 6.9 mph - 0.00 in   Overcast
4:13 PM 26.6°F 26.6°F 100% 29.83 in 10.0 miles South 8.1 mph - N/A   Overcast
4:36 PM 26.6°F 26.6°F 100% 29.84 in 10.0 miles SSW 9.2 mph - N/A   Overcast
4:58 PM 26.6°F 26.6°F 100% 29.91 in 10.0 miles SSW 9.2 mph - 0.00 in   Overcast
5:02 PM 26.6°F 26.6°F 100% 29.84 in 10.0 miles SSW 9.2 mph - N/A   Overcast
5:16 PM 26.6°F 26.6°F 100% 29.84 in 9.0 miles SSW 6.9 mph - N/A   Overcast
5:41 PM 26.6°F 26.6°F 100% 29.83 in 8.0 miles South 5.8 mph - N/A Snow Light Snow
5:58 PM 27.1°F 27.1°F 100% 29.91 in 6.0 miles South 4.6 mph - 0.00 in Snow Light Snow
6:58 PM 27.7°F 27.7°F 100% 29.91 in 3.0 miles SSW 4.6 mph - 0.00 in Snow Light Snow
7:26 PM 28.4°F 28.4°F 100% 29.82 in 4.0 miles SSW 6.9 mph - N/A Snow Light Snow
7:36 PM 28.4°F 28.4°F 100% 29.82 in 6.0 miles SSW 4.6 mph - N/A   Overcast
7:50 PM 28.4°F 28.4°F 100% 29.81 in 9.0 miles SSW 5.8 mph - N/A   Overcast
7:55 PM 28.4°F 28.4°F 100% 29.80 in 10.0 miles South 4.6 mph - N/A   Overcast
7:58 PM 28.8°F 28.8°F 100% 29.88 in 10.0 miles South 4.6 mph - 0.00 in   Overcast
8:03 PM 28.4°F 28.4°F 100% 29.80 in 10.0 miles South 4.6 mph - N/A   Overcast
8:13 PM 28.4°F 28.4°F 100% 29.80 in 10.0 miles South 5.8 mph - N/A   Overcast
8:55 PM 30.2°F 30.2°F 100% 29.81 in 10.0 miles SSW 3.5 mph - N/A   Overcast
8:58 PM 29.3°F 29.3°F 100% 29.89 in 10.0 miles SSW 3.5 mph - N/A   Overcast
9:18 PM 30.2°F 30.2°F 100% 29.81 in 7.0 miles SSW 4.6 mph - N/A   Overcast
9:58 PM 29.7°F 29.7°F 100% 29.88 in 9.0 miles SW 4.6 mph - 0.00 in   Overcast
10:58 PM 29.1°F 29.1°F 100% 29.81 in 6.0 miles WSW 3.5 mph - N/A   Overcast
11:58 PM 28.4°F 28.4°F 100% 29.82 in 6.0 miles West 2.3 mph - N/A   Overcast
Moon Phase
Jan. 28 Feb. 03 Feb. 10 Feb. 17 Feb. 25
Sunrise:07:21 AM (PST) Moon Rise:06:58 PM (PST)1/28
Sunset:04:46 PM (PST) Moon Set:07:39 AM (PST)1/28

Copyright © 2014 The Weather Underground, Inc.